Vorticity
12 8 3 5 6 11 7 2 11 5 5 4 3 4 3 3 5 6 4 5 4 5 3 3 5 5 5 4 6 7 8 7 6 5 6 8 8 6 5 6 6 6 5 5 6 5 6 6 8 8 7 10 11 8
-6 2 10 10 9 6 4 6 9 11 3 4 4 3 4 4 3 3 3 2 4 5 3 6 6 8 8 8 8 8 9 7 6 8 8 7 7 7 6 9 10 10 6 7 5 7 3 3 4 5 4 5 5 5
10 26 9 8 12 4 3 6 2 8 9 -1 17 6 4 4 4 10 4 3 2 2 9 6 13 11 11 6 13 18 11 13 17 11 8 7 7 10 9 9 9 7 7 7 8 7 5 4 8 8 8 9 9 9
15 12 10 18 10 9 5 8 2 -1 3 2 6 11 6 5 6 3 10 5 6 9 7 8 6 17 13 10 6 9 10 11 9 13 13 9 7 9 10 8 8 7 8 4 8 8 7 8 10 9 9 7 7 8
19 17 11 22 1 3 6 15 15 2 2 2 5 6 8 4 4 7 6 10 6 7 6 5 3 8 8 7 14 9 12 8 12 14 16 15 13 11 11 12 19 17 13 11 10 11 11 15 12 12 13 13 12 8
21 5 7 13 18 21 14 10 14 18 6 1 3 4 11 4 3 3 8 9 9 10 8 5 6 9 5 6 10 7 2 5 4 4 8 15 12 10 12 15 18 17 15 14 16 16 13 12 11 10 6 5 8 10
12 18 3 12 19 18 20 17 12 11 12 12 5 3 7 10 2 6 10 10 5 4 9 11 9 10 9 5 3 7 9 8 7 7 7 5 6 6 5 13 7 12 11 12 12 11 10 9 8 8 7 6 2 -1
10 8 15 7 3 3 16 23 20 14 15 19 15 9 9 8 5 7 10 9 3 10 4 6 11 11 11 9 10 11 11 7 4 5 10 10 6 7 9 3 6 9 6 9 8 7 6 5 3 2 3 4 4 6
10 8 14 12 8 -0 4 7 15 14 16 24 10 25 -1 12 -1 9 7 8 7 5 11 10 7 8 6 5 6 5 6 8 5 9 7 6 7 12 9 9 8 9 9 9 8 7 8 8 9 7 7 8 10 10
11 9 8 15 16 12 4 20 18 13 9 24 23 30 19 9 8 7 12 6 3 10 10 3 10 7 8 6 7 8 6 7 7 6 6 6 8 11 9 14 13 12 12 10 10 10 9 7 10 12 11 10 11 11
11 11 18 17 12 10 24 -6 17 23 11 19 25 13 35 28 32 28 24 9 21 20 7 10 13 8 11 9 8 5 8 9 7 7 10 7 10 11 15 12 9 7 6 7 5 7 11 6 5 7 10 8 4 1
12 26 3 7 14 12 11 20 11 11 35 34 16 -5 9 17 22 11 17 17 25 21 12 11 8 9 8 12 12 10 11 8 8 13 7 14 18 13 7 3 3 4 5 9 10 6 -0 4 6 6 5 0 -4 -4
12 2 11 10 9 10 11 12 16 24 2 16 28 -7 -4 4 3 -2 10 13 3 7 12 10 7 8 13 10 8 6 8 11 9 8 17 19 7 3 6 8 7 6 6 6 7 7 4 4 8 9 6 -2 2 3
1 3 6 11 9 10 10 13 18 12 10 6 -1 5 -3 17 -8 -11 25 10 13 12 9 8 10 10 13 9 7 4 11 8 12 7 9 4 5 5 5 5 7 8 8 7 7 7 6 6 4 1 2 10 20 20
3 19 9 10 13 7 13 14 20 12 32 0 -10 9 21 12 5 13 6 4 9 13 10 9 10 10 8 7 4 5 6 3 4 9 9 10 9 7 7 8 8 9 9 6 2 3 3 1 3 7 13 12 13 12
14 4 -3 6 1 1 2 4 7 11 4 6 6 -2 8 17 17 6 2 -2 0 1 2 6 6 5 3 2 -0 -1 2 12 16 9 12 14 10 5 7 11 9 3 0 2 3 3 2 7 11 14 13 14 12 12
9 15 12 16 12 13 9 4 3 6 0 10 2 4 9 8 6 6 4 3 4 4 6 5 5 3 3 -1 2 1 9 8 10 13 8 5 7 9 4 0 0 2 2 5 8 7 10 14 14 12 12 13 12 14
26 20 22 27 27 21 13 15 10 8 10 6 3 4 5 6 9 10 9 9 10 6 5 7 6 5 3 4 10 10 14 13 9 8 7 3 1 -1 -1 -2 1 10 16 15 13 12 14 14 14 16 17 19 17 22
20 17 14 13 11 11 11 19 13 16 13 12 12 11 13 12 11 9 8 7 6 6 5 3 -2 5 12 12 13 13 10 10 7 0 -0 0 -1 0 14 21 15 12 12 9 10 12 18 22 23 25 24 23 22 27
9 4 13 14 15 14 14 14 14 13 12 15 16 17 12 10 12 14 14 14 14 10 12 12 14 11 15 12 12 9 -1 -5 -2 -2 -0 16 22 18 7 14 20 20 18 23 26 29 30 31 34 32 27 25 20 15
4 12 2 10 13 13 9 20 9 9 15 10 9 8 8 7 4 8 13 14 10 9 18 16 12 8 9 8 5 4 0 0 9 21 18 20 22 13 16 25 26 20 27 34 40 39 41 41 35 22 20 17 15 12
10 3 2 6 7 11 6 9 10 13 11 11 8 9 7 3 -2 4 11 5 6 1 6 10 8 9 0 -3 -0 -0 3 17 24 22 28 23 21 32 33 27 27 26 24 18 17 30 42 32 14 15 11 11 9 10
13 1 11 7 6 5 11 -0 7 3 1 3 -2 3 7 6 6 8 4 -1 3 17 18 13 17 4 5 7 9 33 34 35 35 32 25 20 16 17 15 12 11 13 14 12 9 6 26 29 18 9 2 5 7 8
1 9 7 7 6 7 12 7 3 5 13 20 22 16 9 8 3 4 3 5 40 37 20 19 14 22 22 31 34 34 36 11 8 10 11 17 20 25 21 24 22 23 13 10 13 23 10 8 12 13 12 13 18 17
12 8 10 9 6 20 24 25 27 26 18 13 8 5 19 18 13 16 34 54 29 12 24 25 25 19 19 24 20 15 17 23 17 15 28 8 4 2 4 9 15 25 23 18 9 17 11 6 8 9 5 5 6 21
19 23 26 29 27 24 23 20 20 21 19 20 22 27 25 25 30 49 56 13 21 21 8 4 2 4 10 13 10 12 10 4 -1 -2 5 10 7 6 6 9 10 10 9 19 17 16 16 12 9 9 28 28 20 38
16 23 25 20 19 17 19 16 14 15 17 24 26 18 15 22 22 31 9 11 9 12 4 9 12 11 6 4 5 2 3 7 9 10 11 14 9 12 16 16 14 14 19 10 21 17 11 25 18 19 4 22 34 42
1 20 -5 4 11 16 19 24 24 22 16 8 7 9 10 13 14 20 21 18 15 12 9 7 5 -1 -1 1 11 16 13 12 14 12 17 25 17 15 11 21 25 13 14 12 11 23 16 8 11 1 25 33 32 30
-5 -15 20 20 13 11 11 7 5 4 6 4 15 13 14 15 20 20 15 16 11 10 9 5 6 7 12 14 15 15 18 20 31 31 19 11 15 24 25 32 28 21 19 17 30 25 38 17 9 16 45 37 29 7
6 14 14 9 9 5 11 6 17 11 12 13 12 4 22 5 13 13 13 8 6 8 12 12 13 16 20 22 23 24 21 28 22 2 26 30 28 22 24 30 31 27 16 16 33 36 35 27 37 40 34 26 7 4
7 6 12 13 18 14 10 11 16 13 14 8 9 18 7 14 8 7 6 5 12 12 12 16 20 24 18 21 25 30 32 17 10 18 16 2 3 6 5 10 20 29 28 28 26 29 30 36 27 33 17 8 8 6
6 3 1 2 6 2 5 9 10 6 21 18 8 6 5 8 2 4 11 17 19 20 18 29 22 19 23 26 29 20 13 23 19 6 3 0 1 8 20 10 16 26 28 29 27 26 21 31 25 8 7 7 9 10
5 6 7 13 12 9 10 8 22 26 12 8 5 7 10 7 7 13 16 13 11 20 13 27 19 14 16 19 24 25 20 12 2 3 -3 4 14 24 21 14 17 21 26 23 16 15 34 12 6 6 11 9 5 17
Height
5681 5686 5691 5697 5702 5705 5708 5711 5714 5719 5722 5723 5724 5725 5727 5728 5730 5732 5731 5731 5731 5730 5730 5729 5729 5728 5727 5725 5725 5725 5725 5723 5723 5722 5722 5721 5720 5719 5719 5719 5717 5716 5714 5713 5710 5708 5708 5705 5703 5703 5701 5698 5696 5693
5665 5671 5675 5681 5687 5691 5695 5699 5701 5705 5709 5712 5714 5715 5717 5719 5719 5721 5723 5723 5723 5723 5723 5722 5721 5720 5720 5719 5718 5716 5716 5715 5714 5713 5713 5712 5712 5711 5710 5709 5707 5706 5704 5703 5702 5699 5695 5693 5692 5691 5689 5687 5685 5682
5646 5652 5660 5665 5671 5676 5680 5685 5689 5692 5695 5699 5702 5705 5706 5706 5708 5710 5711 5712 5713 5714 5714 5714 5712 5711 5711 5709 5709 5709 5706 5705 5705 5703 5703 5703 5702 5702 5700 5700 5698 5696 5694 5692 5691 5689 5685 5681 5680 5680 5678 5675 5673 5670
5630 5636 5642 5648 5654 5660 5664 5669 5674 5678 5682 5685 5688 5692 5694 5695 5696 5698 5699 5700 5701 5702 5703 5703 5703 5702 5701 5700 5699 5699 5697 5695 5695 5694 5693 5693 5692 5692 5690 5688 5689 5688 5686 5681 5679 5676 5674 5670 5669 5666 5663 5660 5658 5655
5613 5620 5626 5631 5637 5642 5648 5652 5657 5662 5667 5670 5674 5676 5679 5682 5684 5685 5687 5688 5689 5691 5690 5692 5692 5693 5692 5691 5689 5688 5688 5687 5685 5684 5683 5681 5681 5678 5676 5676 5679 5675 5672 5667 5664 5664 5661 5660 5658 5654 5651 5648 5645 5642
5601 5607 5613 5617 5621 5626 5630 5635 5640 5645 5650 5655 5658 5661 5664 5667 5669 5672 5674 5675 5677 5677 5677 5678 5681 5681 5681 5680 5678 5678 5679 5677 5675 5675 5673 5673 5671 5667 5664 5667 5668 5662 5658 5655 5654 5653 5650 5648 5645 5642 5639 5636 5632 5628
5587 5593 5599 5603 5607 5611 5615 5619 5624 5628 5633 5637 5639 5644 5649 5652 5654 5657 5660 5662 5663 5664 5665 5665 5667 5670 5669 5668 5667 5666 5665 5664 5664 5663 5663 5662 5661 5657 5655 5658 5653 5653 5650 5648 5645 5642 5639 5636 5633 5630 5628 5624 5620 5616
5573 5579 5585 5590 5594 5598 5602 5606 5610 5614 5617 5620 5622 5627 5632 5636 5639 5642 5643 5646 5648 5650 5652 5653 5656 5658 5658 5657 5656 5655 5654 5653 5653 5651 5652 5651 5648 5646 5648 5646 5642 5639 5637 5635 5633 5629 5627 5623 5621 5618 5615 5611 5606 5600
5560 5566 5571 5577 5582 5586 5589 5594 5597 5601 5602 5603 5604 5609 5615 5620 5624 5627 5627 5630 5632 5638 5638 5641 5643 5643 5646 5645 5645 5644 5643 5642 5642 5642 5641 5639 5639 5639 5635 5633 5629 5627 5625 5622 5619 5616 5613 5610 5606 5602 5597 5591 5586 5581
5546 5553 5559 5563 5568 5573 5577 5580 5584 5587 5590 5589 5590 5596 5598 5604 5607 5610 5611 5614 5618 5620 5623 5627 5629 5629 5630 5631 5631 5632 5630 5630 5628 5630 5627 5627 5629 5627 5621 5619 5615 5613 5610 5607 5603 5601 5598 5593 5589 5584 5579 5574 5568 5562
5534 5540 5545 5550 5555 5560 5564 5568 5570 5573 5576 5578 5579 5582 5585 5588 5592 5594 5595 5600 5603 5606 5608 5613 5614 5614 5615 5616 5616 5615 5614 5614 5614 5617 5615 5615 5617 5611 5608 5605 5600 5598 5595 5592 5589 5585 5582 5577 5572 5567 5562 5556 5550 5543
5521 5528 5534 5539 5544 5549 5551 5554 5558 5561 5564 5568 5570 5572 5575 5577 5577 5580 5582 5585 5589 5591 5596 5598 5599 5600 5601 5601 5601 5601 5600 5600 5600 5601 5600 5601 5601 5595 5593 5591 5587 5582 5579 5576 5573 5569 5564 5560 5555 5551 5545 5538 5531 5524
5510 5515 5522 5528 5532 5536 5538 5541 5546 5549 5552 5555 5559 5563 5565 5565 5565 5568 5571 5574 5576 5578 5580 5583 5585 5586 5587 5588 5587 5587 5586 5586 5585 5586 5587 5587 5580 5578 5577 5574 5571 5566 5562 5559 5555 5551 5547 5542 5536 5531 5526 5516 5508 5504
5498 5505 5510 5515 5520 5522 5526 5531 5533 5537 5543 5545 5548 5550 5551 5552 5554 5559 5562 5564 5564 5566 5569 5571 5572 5574 5573 5573 5573 5573 5573 5572 5571 5573 5574 5568 5566 5562 5559 5555 5551 5548 5545 5542 5537 5533 5528 5521 5516 5511 5503 5496 5485 5480
5486 5492 5497 5502 5507 5510 5515 5518 5521 5527 5531 5534 5537 5536 5538 5541 5544 5546 5549 5551 5552 5554 5556 5558 5559 5559 5559 5560 5561 5560 5559 5559 5559 5557 5555 5552 5548 5544 5540 5536 5534 5531 5528 5524 5518 5513 5505 5499 5491 5486 5481 5472 5464 5458
5473 5480 5484 5489 5494 5498 5502 5506 5509 5515 5518 5522 5524 5525 5526 5529 5531 5533 5535 5537 5539 5541 5543 5543 5544 5544 5546 5545 5549 5547 5546 5546 5541 5537 5535 5533 5530 5526 5523 5519 5515 5510 5505 5499 5492 5488 5483 5476 5467 5459 5458 5455 5444 5436
5460 5466 5470 5475 5480 5484 5489 5494 5499 5503 5507 5509 5511 5512 5514 5516 5517 5519 5521 5523 5525 5527 5528 5528 5529 5530 5531 5532 5534 5533 5532 5529 5522 5521 5518 5515 5513 5510 5504 5498 5492 5486 5480 5474 5466 5461 5456 5450 5442 5435 5431 5430 5422 5418
5447 5452 5457 5462 5466 5470 5474 5479 5485 5490 5495 5496 5497 5498 5499 5500 5501 5503 5505 5507 5510 5511 5512 5513 5515 5517 5517 5518 5515 5516 5513 5510 5505 5501 5500 5498 5492 5488 5482 5475 5470 5463 5457 5449 5442 5437 5432 5426 5418 5413 5409 5405 5401 5398
5439 5443 5447 5450 5454 5459 5463 5467 5473 5478 5481 5481 5483 5483 5485 5486 5486 5486 5488 5491 5493 5495 5497 5499 5498 5501 5499 5498 5497 5496 5493 5491 5487 5485 5480 5478 5471 5467 5460 5454 5447 5440 5431 5425 5419 5415 5409 5402 5396 5393 5389 5384 5380 5380
5432 5435 5438 5441 5445 5448 5452 5458 5461 5464 5467 5470 5469 5470 5470 5471 5469 5470 5471 5475 5478 5480 5482 5484 5483 5477 5474 5477 5477 5478 5476 5473 5465 5460 5458 5455 5449 5439 5431 5427 5421 5414 5409 5403 5399 5393 5386 5379 5377 5371 5368 5365 5363 5362
5424 5427 5430 5433 5436 5439 5441 5446 5448 5452 5454 5456 5456 5458 5460 5459 5457 5457 5458 5462 5465 5467 5466 5464 5457 5454 5455 5462 5461 5455 5456 5451 5442 5430 5425 5422 5422 5415 5411 5405 5397 5392 5387 5383 5376 5369 5363 5359 5357 5355 5353 5352 5351 5350
5413 5417 5420 5422 5425 5428 5432 5435 5438 5440 5442 5443 5445 5445 5446 5446 5444 5441 5445 5451 5453 5453 5443 5435 5435 5435 5438 5441 5439 5434 5432 5427 5417 5409 5405 5396 5392 5394 5391 5386 5381 5376 5371 5366 5360 5354 5351 5348 5345 5344 5343 5342 5341 5339
5403 5407 5409 5411 5414 5416 5421 5424 5425 5427 5429 5431 5432 5431 5431 5430 5427 5423 5433 5441 5441 5430 5412 5411 5414 5413 5415 5418 5417 5414 5409 5400 5390 5389 5387 5384 5377 5374 5369 5368 5365 5359 5357 5357 5349 5346 5343 5341 5338 5335 5334 5332 5330 5331
5392 5396 5398 5398 5402 5405 5408 5410 5413 5415 5416 5414 5412 5412 5413 5411 5411 5414 5424 5427 5415 5399 5395 5395 5394 5396 5395 5394 5394 5393 5393 5382 5375 5373 5372 5367 5362 5361 5356 5351 5349 5346 5343 5340 5339 5335 5332 5329 5327 5325 5324 5322 5321 5319
5379 5382 5386 5388 5391 5395 5396 5396 5396 5397 5397 5395 5395 5397 5400 5397 5399 5401 5408 5403 5388 5386 5385 5384 5383 5381 5380 5381 5380 5379 5378 5368 5360 5357 5365 5356 5347 5345 5342 5338 5334 5332 5329 5323 5324 5320 5319 5316 5315 5313 5312 5312 5309 5307
5370 5372 5376 5379 5381 5381 5382 5383 5384 5384 5384 5384 5385 5386 5386 5384 5386 5391 5387 5383 5381 5379 5377 5375 5373 5371 5370 5368 5365 5364 5362 5356 5347 5345 5348 5343 5335 5330 5327 5324 5321 5322 5317 5309 5306 5304 5305 5304 5303 5302 5302 5299 5296 5294
5363 5368 5370 5371 5373 5373 5373 5373 5373 5374 5376 5377 5377 5376 5374 5374 5378 5380 5377 5375 5374 5371 5368 5367 5363 5361 5358 5356 5353 5351 5348 5344 5337 5333 5331 5328 5324 5318 5312 5307 5304 5304 5302 5297 5293 5291 5291 5290 5291 5290 5289 5288 5286 5286
5359 5363 5366 5367 5366 5367 5367 5368 5368 5369 5370 5370 5369 5368 5368 5371 5372 5371 5368 5366 5363 5361 5359 5357 5354 5349 5347 5346 5342 5338 5334 5328 5322 5318 5314 5313 5309 5304 5298 5292 5288 5288 5286 5283 5280 5278 5279 5279 5280 5280 5278 5277 5278 5280
5357 5360 5361 5362 5362 5363 5365 5365 5366 5367 5366 5363 5364 5365 5365 5364 5363 5359 5359 5357 5355 5350 5347 5345 5344 5338 5334 5331 5327 5322 5317 5311 5305 5301 5299 5298 5296 5292 5282 5280 5277 5275 5273 5270 5267 5264 5264 5266 5268 5270 5270 5270 5273 5276
5354 5355 5356 5357 5358 5359 5362 5361 5363 5360 5359 5359 5358 5357 5358 5357 5355 5352 5351 5348 5343 5341 5337 5332 5327 5322 5316 5311 5308 5305 5299 5295 5291 5289 5289 5287 5284 5280 5276 5272 5267 5264 5261 5259 5256 5253 5253 5256 5259 5261 5263 5267 5270 5274
5350 5351 5353 5354 5356 5358 5357 5356 5356 5354 5354 5354 5353 5350 5349 5347 5349 5346 5342 5336 5332 5328 5322 5317 5311 5305 5300 5296 5293 5290 5289 5286 5282 5281 5279 5278 5276 5273 5269 5264 5259 5256 5253 5252 5250 5249 5249 5251 5254 5259 5262 5266 5270 5273
5348 5350 5350 5352 5353 5353 5351 5350 5349 5350 5349 5348 5347 5345 5342 5338 5336 5336 5333 5328 5323 5318 5312 5305 5300 5296 5290 5286 5283 5281 5280 5279 5277 5275 5272 5270 5267 5264 5261 5258 5254 5251 5249 5248 5247 5248 5250 5253 5257 5261 5264 5268 5270 5272
5345 5346 5347 5348 5349 5348 5347 5345 5345 5344 5344 5343 5341 5339 5336 5331 5328 5326 5323 5318 5312 5306 5300 5295 5291 5288 5284 5281 5278 5276 5273 5272 5270 5267 5264 5262 5259 5257 5255 5253 5251 5249 5248 5248 5248 5251 5253 5256 5259 5263 5266 5268 5270 5271